Theta_e
305 305 305 305 306 305 305 305 305 305 305 305 305 305 304 304 303 303 303 302 302 301 301 301 301 300 300 300 300 300 300 300 300 300 300 300 300 300 300 300 300 300 300 300 300 300 300 300 300 300 301 301 301 301 301 301 302 302 303 304 304 305 305 306 306 306 307 307 307 307 307 308 308 307 308 308 308 307 307 306 306 306 306 306 306
305 305 305 305 305 305 305 305 304 304 304 304 303 302 301 301 300 300 300 299 299 298 298 298 298 297 297 297 297 298 298 298 299 299 299 299 298 298 299 299 299 299 299 299 298 299 299 299 299 298 299 300 300 300 300 300 300 300 301 301 302 302 303 304 304 304 304 305 304 305 305 305 305 305 305 306 306 306 306 306 306 306 306 305 305
304 305 305 305 305 304 304 304 303 302 302 301 300 300 299 298 298 297 297 297 296 296 296 295 295 295 295 296 296 296 296 297 297 297 297 297 297 297 297 297 297 297 297 297 297 298 298 298 298 297 298 298 298 298 298 298 298 298 298 299 299 300 300 301 302 303 303 303 302 303 303 303 303 303 304 304 305 305 305 305 305 305 304 304 304
304 304 304 304 303 302 302 301 300 300 299 298 298 297 297 296 296 295 295 295 295 294 294 294 294 294 294 294 294 294 295 295 295 296 296 296 297 297 297 296 296 296 296 296 296 297 297 297 296 296 296 297 297 297 297 296 296 296 297 297 298 298 299 300 301 302 302 302 302 301 301 302 302 302 302 303 303 303 303 303 303 303 303 303 302
303 303 302 302 301 300 299 298 298 297 296 296 295 295 294 294 294 294 294 293 293 293 293 293 293 293 292 293 293 293 293 293 293 294 294 295 296 296 296 296 296 296 296 296 296 296 296 296 296 296 296 296 296 295 295 295 295 295 295 296 296 297 297 298 299 299 300 300 300 300 300 300 301 301 301 302 302 302 302 302 301 301 301 301 301
302 301 300 300 299 298 297 296 295 295 294 294 294 293 293 293 293 293 292 292 292 292 292 292 292 292 292 292 292 292 292 292 293 293 293 293 294 294 294 295 295 295 295 295 295 295 295 295 295 295 295 295 295 295 295 294 294 294 295 295 295 295 296 297 297 298 298 299 299 299 299 299 300 300 300 301 301 301 300 300 299 299 299 299 299
300 299 298 298 296 295 295 294 294 294 293 293 292 292 292 291 292 292 292 292 291 291 291 291 291 291 291 291 291 291 291 291 292 292 292 292 292 292 293 293 293 294 294 294 294 294 295 295 295 295 295 295 295 295 295 294 294 294 294 294 294 295 295 295 296 296 297 297 298 298 298 299 299 299 299 300 300 299 299 298 297 297 297 297 297
298 297 296 295 294 294 293 293 293 292 292 292 291 291 291 291 291 291 291 291 291 291 291 291 291 291 291 291 291 291 291 291 291 291 291 291 291 291 291 292 292 292 293 293 293 293 294 294 294 295 295 295 295 295 295 295 294 294 294 294 294 294 294 294 295 295 296 296 297 297 297 298 298 298 299 299 297 297 297 296 296 296 296 295 295
296 295 294 294 293 293 292 292 292 291 291 291 291 291 291 291 291 291 291 291 291 291 290 290 290 290 290 290 290 290 290 290 290 290 290 290 290 290 291 291 291 291 291 291 292 292 292 293 293 294 294 294 294 295 295 294 294 294 294 294 293 293 294 293 294 294 294 295 295 296 296 297 297 297 298 298 297 296 297 296 295 295 295 294 293
294 293 293 292 292 292 292 291 291 291 291 291 291 290 290 291 291 291 290 290 290 290 290 290 289 289 289 289 289 289 289 289 289 289 290 290 289 290 290 290 290 290 290 290 290 291 291 292 293 293 293 294 294 294 294 294 294 294 294 294 293 293 293 293 293 293 293 294 294 295 295 295 296 296 297 297 297 297 297 295 294 294 293 291 291
293 292 292 292 291 291 291 291 290 290 290 290 290 290 290 290 290 290 290 290 290 290 289 290 289 289 289 289 289 289 289 289 289 289 289 289 289 289 289 289 289 289 289 290 290 290 290 291 292 292 293 293 293 293 294 293 294 293 293 293 293 293 293 293 293 293 293 293 294 294 294 295 295 295 295 296 296 296 296 295 294 293 291 290 290
292 291 291 291 291 291 291 290 290 290 290 290 290 290 290 290 290 290 290 290 290 290 289 290 289 289 289 289 289 289 289 289 289 289 289 289 289 289 289 289 289 289 289 289 289 290 290 290 291 291 292 292 293 293 293 293 293 293 293 292 292 292 292 293 293 293 293 293 293 294 294 294 294 294 295 295 295 296 296 295 294 293 291 291 290
291 291 291 291 290 290 290 290 289 289 289 289 289 289 289 290 290 290 290 289 289 289 289 289 289 289 289 289 289 289 289 289 289 289 289 289 289 289 289 289 289 289 289 289 289 289 290 290 290 291 291 292 292 292 292 292 293 292 292 292 292 291 291 292 292 292 293 293 293 293 293 294 294 294 294 294 294 294 295 294 293 292 291 291 291
291 290 290 290 290 289 289 289 289 289 289 289 289 290 290 290 289 289 289 289 289 289 289 289 289 289 289 288 288 289 289 289 288 288 288 288 288 288 288 288 289 289 289 289 289 289 289 289 290 290 291 291 291 291 292 292 292 292 292 292 291 291 291 291 291 291 291 292 292 293 293 293 293 293 293 293 293 293 293 293 293 292 291 291 291
290 290 289 289 289 289 288 288 289 289 289 289 290 289 289 289 289 289 288 288 288 288 288 288 288 288 288 288 288 288 288 288 288 288 288 288 288 288 288 288 288 288 289 288 289 289 289 289 289 290 290 291 291 291 291 291 291 291 291 291 291 291 290 290 290 290 291 291 291 292 292 292 292 292 293 293 292 292 292 293 293 292 291 290 289
290 289 289 288 288 288 288 288 289 289 289 289 289 289 289 288 288 288 288 288 288 288 288 288 288 288 288 288 288 288 288 288 287 288 288 287 287 287 288 288 288 288 288 288 288 288 288 289 289 289 290 290 290 290 290 290 291 291 291 291 291 290 290 290 290 290 290 291 291 291 291 292 292 292 292 292 292 292 292 292 292 292 290 289 287
289 288 288 287 287 287 288 289 289 289 289 289 288 288 288 288 288 288 288 288 288 288 288 288 288 287 287 287 287 287 288 288 287 287 287 287 287 287 287 287 287 288 288 288 288 288 288 288 288 289 289 289 290 289 289 290 290 290 290 290 290 290 290 290 290 290 290 290 291 291 291 291 291 291 291 291 291 292 292 291 291 290 288 287 286
288 288 287 286 287 287 288 289 289 288 288 288 288 288 288 288 288 288 288 288 288 287 287 287 287 287 287 287 287 287 287 288 287 287 287 287 286 286 286 287 287 287 287 288 288 288 288 288 288 288 288 288 289 289 289 289 290 290 290 290 290 290 290 290 290 290 290 290 290 290 290 290 290 290 290 290 290 291 291 290 290 289 288 287 286
287 286 286 286 287 288 288 288 288 288 288 288 287 287 287 287 287 287 287 287 287 287 287 287 287 287 287 287 287 287 287 287 287 287 286 286 286 286 286 287 287 287 287 287 287 287 287 288 288 288 288 288 288 288 288 289 289 289 289 289 289 289 289 289 289 289 289 289 289 289 289 289 289 289 290 290 290 290 290 290 290 289 288 288 286
286 286 286 286 287 288 288 287 287 287 287 287 287 287 287 287 287 287 287 287 287 287 287 286 287 287 287 286 286 286 286 286 287 286 286 285 285 285 286 286 286 287 287 287 287 287 287 287 287 287 287 287 287 287 288 288 288 288 288 288 288 288 288 288 288 288 289 289 288 289 289 289 289 289 289 289 289 290 289 289 289 289 288 287 286
285 286 286 287 287 287 287 287 287 287 287 287 287 287 287 287 287 287 286 286 286 286 286 286 286 286 287 286 286 286 286 285 286 286 285 284 284 285 285 286 286 286 287 287 287 287 287 287 287 287 287 287 287 287 287 288 288 288 288 288 287 288 288 288 288 288 288 288 288 289 289 289 289 289 289 289 288 288 288 288 289 289 288 287 286
285 286 286 286 287 287 287 286 286 286 286 287 287 287 286 286 286 286 285 285 285 285 285 284 284 285 286 286 285 285 285 285 284 284 284 283 283 284 284 285 285 286 286 287 287 287 287 287 287 287 286 286 286 287 287 287 287 287 287 287 287 287 287 287 287 287 287 288 288 288 288 288 288 288 288 287 287 287 287 287 288 288 287 287 286
285 285 286 286 286 286 286 286 286 286 286 286 286 286 286 286 285 285 284 284 283 283 283 282 282 283 284 285 285 284 283 283 283 283 282 282 282 283 284 284 285 286 286 286 287 287 287 286 286 286 285 286 286 286 287 287 287 287 287 287 287 287 287 287 287 287 287 287 287 288 288 287 287 286 286 285 285 285 286 286 286 286 286 285 285
284 285 286 286 286 286 286 286 286 286 286 286 286 286 286 285 284 284 283 282 281 281 281 281 281 281 281 282 283 282 282 282 282 281 281 281 281 282 283 284 284 285 285 285 285 285 285 285 285 285 285 285 286 286 286 287 287 287 287 287 286 286 286 286 286 286 287 287 287 287 287 286 285 284 283 283 283 283 284 284 284 284 284 284 283
284 285 286 286 285 285 285 286 286 286 286 286 285 285 284 283 283 282 281 280 280 279 279 279 279 279 279 279 280 281 281 281 280 280 280 281 281 281 282 282 283 283 283 283 283 283 284 284 284 285 285 286 286 286 286 286 286 286 286 286 286 286 286 286 286 286 286 286 287 287 285 284 283 282 281 281 281 282 282 282 282 282 283 282 282
285 285 285 285 285 285 286 286 286 285 285 284 284 282 281 281 281 280 279 279 279 278 278 278 278 278 278 278 279 279 279 279 279 280 280 280 280 280 281 281 281 282 282 283 283 283 284 284 285 285 286 286 286 286 286 286 287 286 286 286 286 286 286 286 286 286 286 287 286 285 284 282 281 280 280 279 280 280 281 281 280 280 281 281 280
285 285 285 285 285 285 285 285 285 284 284 283 282 281 280 279 279 278 278 278 278 277 277 277 277 277 278 278 278 278 278 279 279 279 279 279 280 280 281 281 281 282 282 283 283 284 284 284 285 285 286 286 286 286 286 287 287 286 286 286 286 286 286 286 286 286 286 286 285 283 281 280 279 278 278 278 278 278 279 280 279 278 278 280 277
284 285 284 284 284 284 284 284 283 283 282 281 280 280 280 279 279 278 278 277 277 277 277 277 277 277 277 277 278 278 278 278 278 279 279 279 280 280 281 281 282 282 282 283 283 283 284 284 285 285 285 286 286 286 286 286 286 286 286 286 286 286 286 286 286 286 285 284 283 281 279 278 277 277 276 276 276 276 277 278 278 276 277 277 274
284 284 283 283 283 282 282 281 280 280 279 279 279 279 278 278 279 279 278 277 276 276 276 276 277 277 277 277 277 277 277 277 278 278 279 279 280 280 280 281 281 281 282 282 282 283 283 284 284 285 285 286 286 286 286 286 286 286 286 286 286 286 286 285 285 285 283 282 281 279 277 276 276 276 275 275 275 275 276 276 276 275 275 275 272
283 282 281 281 280 280 280 280 279 278 277 277 278 279 280 279 278 278 278 277 275 275 276 276 276 276 276 276 276 277 277 277 278 278 278 278 279 279 279 280 280 281 281 281 282 282 283 284 284 285 285 285 285 286 286 286 286 286 286 286 286 285 285 284 284 283 282 280 279 278 277 276 275 275 275 275 275 275 275 275 275 274 274 273 271
280 279 279 279 280 280 279 278 276 276 276 276 276 278 280 281 280 279 277 276 275 274 274 275 275 275 276 276 276 276 276 276 276 277 277 277 278 278 279 279 280 280 280 280 281 282 282 283 284 284 285 285 285 285 286 286 286 286 286 285 285 285 284 284 283 281 280 278 278 277 276 275 275 274 274 274 274 274 274 274 274 273 273 272 271
280 280 280 280 279 278 276 275 275 275 275 275 275 275 275 277 278 278 277 275 274 274 274 274 274 274 274 274 274 274 274 274 275 275 276 276 277 277 278 278 278 278 279 280 281 282 282 283 284 284 284 285 285 285 286 286 286 286 285 285 284 284 284 283 281 280 279 278 277 276 275 275 274 274 274 274 274 274 273 273 273 272 271 271 270
280 280 279 278 277 275 274 274 274 274 274 273 273 272 270 270 272 274 275 276 275 274 273 273 272 272 272 272 272 273 273 273 274 274 275 275 276 276 276 277 277 278 279 280 281 282 282 283 284 284 284 285 285 285 285 285 285 285 284 284 284 283 282 281 280 279 278 277 276 275 274 274 274 274 274 274 273 273 273 272 272 271 270 269 269
280 279 277 276 275 274 274 273 273 272 272 271 270 270 269 269 268 269 271 273 273 273 272 271 270 270 270 270 271 271 272 272 273 273 274 274 274 275 275 276 276 277 278 279 280 281 282 283 283 283 284 284 284 285 285 285 284 284 284 283 283 282 281 280 279 278 277 276 275 275 274 274 274 273 273 273 273 273 272 271 271 270 270 269 268
278 277 276 275 274 274 274 273 272 271 271 270 269 269 268 268 268 268 268 268 269 270 270 269 269 269 269 269 270 270 271 271 272 272 273 273 274 274 275 275 275 276 277 278 279 280 281 282 282 282 283 283 284 284 284 284 283 283 283 282 281 281 280 279 278 277 276 275 275 274 274 274 273 273 273 273 273 272 271 271 271 270 270 269 268
276 275 275 274 274 274 273 272 271 271 270 269 269 268 268 267 267 267 268 267 268 268 268 268 268 268 268 269 269 269 270 270 271 271 272 272 273 273 274 274 275 276 277 278 279 279 280 281 281 282 282 282 283 283 283 282 282 282 281 281 280 279 279 278 277 277 276 275 274 274 274 273 273 273 273 273 272 272 271 271 271 270 269 269 268
275 274 274 274 273 273 272 271 271 270 269 269 268 268 267 267 267 267 267 267 267 267 267 267 268 268 268 268 268 268 269 269 270 270 271 271 272 272 272 273 274 275 277 278 278 279 279 279 279 280 280 281 281 281 281 281 281 280 280 279 279 279 278 277 277 276 276 275 274 274 274 273 273 273 273 273 272 271 271 271 270 269 269 268 268
274 273 273 273 272 272 271 271 270 269 269 268 268 267 267 267 267 267 267 267 267 267 267 267 267 267 268 268 268 268 268 268 269 269 269 270 270 271 272 273 274 275 276 277 277 277 277 276 276 277 278 279 279 280 279 279 279 279 278 278 278 278 277 277 276 276 275 275 274 274 274 273 273 273 273 273 272 271 271 270 270 269 268 268 268
273 272 272 271 271 271 270 270 269 268 268 267 267 266 266 266 266 266 266 266 266 266 266 267 267 267 267 267 267 267 268 268 268 268 269 269 270 271 272 273 273 274 274 274 274 273 273 272 273 275 276 277 277 278 278 278 278 277 277 277 277 277 276 276 276 276 275 275 274 274 274 274 273 273 273 273 272 271 271 270 270 269 268 267 267
272 271 271 271 270 269 269 269 268 267 267 267 266 266 266 266 266 266 266 266 266 266 266 266 266 266 266 266 266 267 268 268 268 268 268 269 270 270 270 270 270 271 271 271 270 270 269 269 271 272 274 275 275 276 276 276 276 276 276 276 276 276 276 276 275 275 275 274 274 274 274 273 273 273 273 272 272 271 271 270 269 269 268 268 267
271 271 271 270 269 268 268 267 267 267 266 266 266 266 266 266 266 266 266 266 266 266 265 265 265 266 265 266 266 267 267 267 267 267 268 268 268 268 268 267 267 267 267 267 266 267 267 267 268 270 272 273 274 275 275 275 275 275 275 275 275 275 275 275 275 275 274 274 274 274 273 273 273 273 273 272 271 270 270 269 269 268 268 267 267
271 271 270 269 268 267 267 267 266 266 266 266 266 266 266 266 266 265 265 265 265 265 265 265 265 265 265 265 265 265 265 266 266 266 266 266 266 266 266 265 265 265 264 264 264 264 265 265 267 268 270 272 273 273 273 273 274 274 274 274 274 274 274 274 274 274 274 274 274 273 273 273 273 273 273 272 271 270 269 269 268 268 268 267 267
270 270 269 268 267 267 266 266 266 266 265 266 266 266 265 265 265 265 265 265 265 265 265 265 265 264 264 264 264 264 264 264 265 265 265 265 265 264 264 264 264 263 263 263 263 263 264 265 266 268 270 272 273 272 271 271 272 273 273 273 274 274 274 274 273 273 273 273 273 273 273 273 273 273 273 272 271 270 269 269 268 268 267 267 267
270 269 268 268 267 266 266 266 265 265 265 265 265 265 265 265 265 265 265 264 264 264 264 264 264 264 264 264 264 263 263 263 264 264 264 264 263 263 263 264 264 264 264 263 263 264 265 266 267 269 271 272 273 272 271 271 272 272 272 273 273 273 273 273 273 273 273 273 273 273 273 273 273 273 273 272 271 270 269 268 268 268 267 267 266
269 269 268 267 266 266 266 265 265 265 265 265 265 265 265 265 264 264 264 264 264 264 264 264 264 263 263 263 263 263 263 263 263 263 263 263 263 263 263 263 264 264 265 265 265 266 266 267 268 269 271 271 272 272 271 271 271 272 272 273 273 273 272 272 273 273 273 273 272 272 273 273 272 273 272 271 270 270 269 268 268 268 267 266 266
269 268 267 267 266 266 266 265 265 265 265 265 265 265 265 264 264 264 264 264 264 263 263 263 263 263 263 263 263 263 262 262 262 262 262 262 263 263 263 264 264 265 266 266 266 267 267 268 268 269 269 270 270 270 271 271 271 272 272 273 273 274 273 273 273 273 273 273 273 273 274 273 273 272 272 271 270 270 270 269 268 268 267 266 266
268 267 266 266 266 266 265 265 265 265 265 265 264 264 264 264 264 263 263 263 263 263 263 263 263 263 263 262 262 262 262 262 262 262 262 262 262 263 263 264 264 265 266 266 266 267 267 267 268 268 269 269 270 270 270 271 271 272 272 273 274 274 274 274 273 273 273 273 273 273 274 274 273 272 272 271 270 270 270 269 268 268 267 266 266
267 266 266 266 266 265 265 265 265 264 264 264 264 264 264 263 263 263 263 263 263 263 263 263 262 262 262 262 262 262 262 262 262 262 262 263 263 263 263 263 264 265 266 266 266 266 266 267 267 267 268 269 269 269 270 270 271 271 272 273 273 273 273 273 273 273 273 273 273 273 274 274 273 273 272 272 271 271 270 269 268 267 267 266 266
266 266 265 265 265 265 265 265 264 264 264 264 264 264 264 263 263 263 263 263 263 263 262 262 262 262 262 262 262 262 262 262 262 263 263 263 264 264 264 263 263 264 265 265 266 266 266 266 266 266 267 267 268 268 268 269 270 270 271 271 272 272 272 272 273 273 273 273 273 273 273 274 274 273 273 272 272 271 270 269 268 267 266 266 265
266 265 265 265 265 265 265 264 264 264 264 263 263 264 264 264 264 263 263 263 263 263 262 262 262 262 262 262 262 261 261 261 262 262 263 263 263 264 264 264 264 264 264 265 265 265 265 265 266 266 266 267 267 267 267 268 269 269 270 270 271 271 271 272 272 272 272 272 272 273 273 273 274 273 272 272 271 270 269 268 267 267 266 266 266
265 265 265 265 265 265 264 264 264 264 264 264 264 264 264 264 264 264 263 263 262 263 263 262 262 262 262 262 262 261 261 262 262 262 262 263 263 263 264 264 264 264 264 265 265 265 265 265 265 265 266 266 266 266 267 267 267 268 268 269 270 271 271 271 271 271 272 272 272 272 272 272 272 272 271 270 269 269 268 268 267 267 267 266 266
Wind_Speed
19 19 19 18 18 18 18 17 17 16 16 15 15 16 15 14 14 14 14 14 14 14 15 15 16 16 16 16 16 16 17 17 17 17 18 18 18 18 19 20 21 22 23 24 24 23 23 24 26 27 26 25 26 27 27 27 26 26 25 26 29 27 27 28 19 20 40 48 40 37 36 35 37 37 34 35 35 32 32 33 34 36 39 40 39
20 20 20 20 20 19 19 18 17 16 16 16 16 16 15 15 15 15 15 15 15 15 15 15 15 16 15 15 15 15 16 16 17 17 18 19 19 20 20 21 22 23 23 24 25 24 25 26 27 28 28 27 27 27 28 28 27 28 28 26 29 30 26 27 26 20 30 45 45 39 36 34 37 39 35 35 36 35 37 40 41 43 43 41 38
21 21 21 20 20 19 18 18 17 16 16 16 16 16 16 15 15 15 15 15 15 14 15 14 14 15 15 15 15 15 16 16 17 17 18 18 19 20 20 20 21 23 24 25 25 25 26 27 28 29 28 28 29 29 29 30 28 28 30 28 28 32 29 27 29 26 26 38 46 43 38 35 36 38 37 37 38 39 40 42 41 41 40 37 36
20 20 21 20 20 19 19 18 17 17 17 16 15 15 15 14 14 15 14 14 14 14 14 14 14 15 15 15 16 16 16 17 17 18 18 18 19 20 21 22 22 23 25 26 26 27 27 29 30 30 29 30 31 31 30 31 30 29 30 31 29 31 32 28 28 29 28 32 41 45 40 36 37 40 38 37 39 40 39 40 38 38 37 35 35
20 20 20 20 20 19 19 18 17 17 17 16 15 14 14 14 14 14 14 14 14 14 14 14 15 16 16 16 17 17 18 19 19 20 20 20 21 22 24 24 25 25 26 27 28 28 29 30 31 30 30 31 31 32 32 31 30 30 30 31 31 31 32 30 29 31 31 31 37 45 44 39 39 40 38 36 38 38 37 37 37 36 35 34 35
20 20 20 20 20 19 18 18 17 16 16 15 14 13 13 13 14 15 15 15 15 15 16 16 17 18 18 19 19 20 21 21 22 22 23 23 24 25 26 26 27 27 28 29 29 29 30 31 32 31 30 31 32 32 33 32 31 31 31 31 32 32 31 31 30 29 31 33 35 40 43 41 39 38 37 35 35 35 34 34 34 34 34 34 36
20 20 20 20 19 19 18 17 16 15 14 14 13 13 13 13 14 16 16 16 17 17 18 18 19 20 20 21 22 22 23 24 24 24 25 25 26 27 28 29 29 30 30 31 31 31 32 32 32 32 31 31 33 33 33 33 33 33 32 32 32 32 31 31 30 29 29 31 33 35 38 40 39 37 36 34 33 31 30 28 29 31 31 31 33
21 20 20 19 19 18 17 16 15 14 14 13 13 13 13 13 15 17 17 17 18 18 19 20 21 22 23 23 23 24 25 26 26 26 26 27 27 28 29 30 31 32 33 33 33 33 33 33 32 32 32 32 32 32 33 33 34 36 36 33 31 31 31 30 29 28 28 29 30 32 33 35 36 34 32 30 26 26 28 27 28 30 28 28 29
20 20 19 19 18 16 15 15 14 14 13 13 13 13 13 14 16 17 18 18 19 19 20 22 23 24 24 24 25 25 26 27 27 27 27 28 29 30 31 32 32 34 36 36 37 36 35 35 35 33 33 33 33 33 33 33 33 36 39 36 32 31 31 31 29 27 27 26 28 30 29 29 32 29 28 27 25 26 29 27 27 30 29 26 27
20 19 18 17 16 15 14 14 13 13 12 12 12 12 13 15 16 18 18 19 19 21 22 23 24 24 25 26 26 27 27 28 28 28 28 28 30 32 33 34 35 36 37 39 40 39 38 37 37 36 35 34 34 34 34 33 33 34 37 37 35 33 32 32 30 28 26 24 26 27 24 25 30 29 27 30 30 29 29 26 25 27 24 20 20
19 18 17 16 15 14 13 12 12 12 11 11 12 13 15 16 18 18 19 20 21 22 23 24 24 25 25 26 27 27 28 30 30 31 31 31 32 33 34 36 37 37 37 38 40 41 40 39 38 37 36 35 36 35 34 34 34 34 35 35 34 34 34 34 33 31 27 25 27 28 25 25 31 32 29 31 32 29 29 28 25 23 18 13 10
18 17 16 15 13 12 11 11 11 11 11 12 13 14 16 17 18 19 19 20 22 23 24 24 25 26 26 27 28 29 31 32 32 33 33 33 33 34 35 36 38 38 38 38 39 40 41 41 40 39 37 36 36 36 36 36 36 35 35 35 34 33 34 34 35 34 32 30 29 30 29 29 32 34 31 29 29 29 29 27 26 23 19 15 12
16 15 14 13 12 11 10 10 10 10 11 12 14 15 16 18 19 19 20 21 22 23 24 26 27 28 29 30 31 32 33 34 34 34 35 36 35 34 35 37 38 39 39 39 39 40 40 40 41 42 40 37 36 37 37 38 38 38 37 36 35 35 34 34 34 34 36 36 34 34 36 34 33 35 36 33 30 30 27 24 25 25 22 20 21
15 14 12 11 10 9 9 9 9 10 11 13 14 16 17 18 19 19 20 22 23 25 26 28 29 30 31 32 33 34 34 35 36 36 36 37 37 36 36 37 39 40 41 41 40 41 40 39 40 43 44 41 38 36 36 37 38 39 38 37 37 37 35 34 33 32 35 38 38 38 41 41 39 41 44 40 34 32 29 26 25 25 24 25 26
14 12 10 9 8 7 7 8 9 11 12 13 15 16 17 19 19 20 21 23 25 27 28 29 31 31 32 33 35 36 36 35 36 37 37 37 38 38 38 38 39 41 42 43 42 40 40 39 39 41 43 42 40 37 35 36 37 38 40 39 39 39 37 35 33 33 35 36 38 40 42 43 43 44 46 44 39 36 35 34 32 29 26 23 19
12 10 8 7 6 5 6 8 9 11 13 14 15 17 18 19 20 21 23 25 26 28 29 30 31 32 33 34 35 37 38 37 36 38 39 38 38 39 39 39 39 41 43 44 43 41 40 39 38 40 41 42 42 39 36 35 36 38 39 41 41 41 40 39 35 34 35 36 37 39 40 40 41 42 44 44 43 41 38 35 32 28 21 15 12
11 9 6 5 4 4 6 8 10 12 13 14 16 17 18 20 21 23 25 27 28 29 30 31 31 32 34 34 35 37 40 40 38 38 39 38 37 38 39 39 39 40 43 45 44 42 41 40 39 39 40 41 42 40 37 35 35 36 37 39 40 41 42 42 38 35 35 34 35 37 38 39 39 40 41 41 42 42 37 31 28 23 17 11 8
10 8 6 4 4 4 6 8 11 12 13 14 16 17 19 20 21 23 25 27 28 28 30 31 32 32 33 34 35 37 40 41 40 39 39 38 37 36 37 37 38 40 42 44 44 43 42 42 40 38 37 39 39 38 36 35 34 34 34 35 37 39 42 42 39 37 36 34 34 35 35 37 36 37 39 39 39 39 35 32 29 21 17 12 8
9 7 5 4 3 4 7 9 11 12 13 14 16 17 19 20 21 23 24 26 27 28 29 31 33 33 33 34 36 37 39 42 42 40 39 39 37 36 35 35 36 38 40 42 44 44 43 43 41 38 35 35 35 34 34 34 33 33 33 33 33 36 40 41 40 40 39 37 37 36 35 35 34 35 37 37 37 37 35 34 32 25 21 16 12
8 7 5 4 3 5 7 9 11 12 13 14 15 17 19 20 22 23 24 25 27 28 30 31 33 35 35 35 37 38 38 41 43 42 40 38 37 35 34 34 35 36 38 40 41 42 43 43 42 39 36 35 35 36 36 35 34 33 33 33 32 35 40 42 42 43 42 40 40 39 36 34 33 33 35 34 34 35 34 33 32 30 27 19 19
8 7 5 4 4 6 8 9 11 11 12 14 15 16 18 20 21 23 24 26 27 29 30 31 33 36 38 38 38 39 39 40 43 43 40 38 37 34 32 33 34 34 37 39 39 39 40 42 43 41 39 38 39 40 39 36 36 36 36 35 35 37 39 41 43 43 42 40 39 37 34 32 31 30 30 29 30 32 31 29 29 31 30 23 22
8 7 5 5 6 7 8 9 10 11 12 14 15 16 18 19 21 23 24 25 27 28 29 30 32 36 39 40 40 40 41 41 42 41 39 38 38 35 32 32 32 32 35 37 38 38 38 40 41 42 41 42 43 43 42 40 38 39 38 37 38 38 38 39 40 40 39 37 35 33 31 30 28 26 24 23 24 24 23 23 23 25 25 23 26
8 7 6 5 6 7 8 9 10 11 12 14 15 17 18 20 21 22 24 25 27 29 29 29 31 35 39 42 43 42 41 41 42 40 38 38 39 36 33 31 30 30 32 35 36 36 37 40 42 44 44 45 45 44 44 42 40 40 40 39 39 39 38 37 37 37 36 35 32 31 29 26 23 20 18 17 16 15 14 14 16 18 18 18 22
8 7 6 6 6 6 7 8 9 11 13 14 16 17 19 20 21 22 23 25 26 28 29 29 30 32 36 40 43 44 43 43 42 41 39 38 38 36 32 30 29 29 31 34 36 37 39 43 46 47 48 48 47 46 45 44 42 42 42 41 41 40 36 33 33 33 32 31 29 28 25 20 17 16 14 12 10 10 12 12 14 16 17 18 19
8 6 6 5 5 5 6 8 9 11 13 15 17 18 19 21 22 23 24 25 25 26 28 28 28 29 32 35 40 44 46 45 44 42 40 38 37 35 32 32 33 34 35 37 39 40 43 45 47 48 48 47 46 44 43 43 43 45 45 44 41 38 33 30 31 30 28 28 27 25 20 16 14 14 12 10 11 12 14 16 17 19 20 21 21
7 6 5 4 5 5 6 8 9 11 13 15 16 18 19 20 22 23 23 24 24 24 26 27 27 28 31 33 36 41 45 46 44 43 43 41 38 38 38 39 40 40 40 40 41 41 42 44 45 46 46 46 45 43 42 43 45 46 44 40 35 32 29 28 28 27 26 27 26 22 17 15 12 10 10 11 14 16 18 21 23 23 24 26 26
6 5 5 4 5 6 7 9 10 12 14 15 17 18 18 19 21 22 22 23 25 25 25 26 26 28 31 33 35 39 43 44 44 43 44 43 43 44 45 45 45 43 41 40 40 41 42 44 45 45 45 44 43 41 40 40 41 40 37 33 29 28 28 28 28 28 29 27 23 17 14 11 9 10 13 14 16 18 20 23 26 25 26 30 28
6 5 4 4 5 6 8 10 11 13 15 16 18 18 19 20 21 22 21 21 23 25 26 26 26 27 30 33 34 37 41 43 43 43 44 45 46 46 47 46 45 43 41 40 41 44 45 45 44 43 41 38 36 35 35 35 34 33 32 30 28 28 28 29 29 30 29 24 18 13 11 10 11 13 14 15 16 18 19 23 26 26 27 29 26
5 5 4 4 5 7 9 10 12 14 15 17 18 18 19 20 23 23 22 19 19 21 24 25 26 27 29 31 31 32 37 43 45 46 45 45 45 45 44 44 44 43 43 44 45 46 45 40 37 36 34 32 31 31 31 31 30 29 29 28 27 26 27 28 28 26 24 19 15 13 12 13 14 15 15 15 16 16 19 23 25 24 25 26 24
5 5 4 5 6 7 9 10 11 13 15 17 20 21 21 21 22 23 22 19 18 18 19 21 23 25 28 31 31 30 33 39 43 44 44 44 44 44 44 44 44 44 44 44 44 42 39 35 32 31 30 29 29 29 28 28 28 28 27 25 24 25 26 27 25 22 19 15 13 13 15 16 16 16 17 17 16 16 18 20 22 23 24 26 23
6 5 4 5 6 7 8 9 10 12 14 16 19 23 25 26 26 24 21 20 21 21 19 18 19 20 22 28 33 33 34 36 38 39 40 41 42 43 43 44 45 44 44 43 40 37 35 33 30 30 29 28 28 28 28 28 27 26 24 23 23 24 26 25 22 18 15 13 12 14 15 16 16 17 17 18 18 18 18 18 20 21 23 25 24
5 4 3 4 5 6 7 7 9 11 13 15 17 20 24 28 31 30 27 25 25 24 20 18 18 18 19 22 28 34 37 38 39 39 39 39 39 39 41 43 44 44 43 41 36 32 30 29 28 28 28 28 27 28 28 28 26 24 22 22 24 24 24 22 19 16 13 12 13 15 15 15 16 17 17 18 19 18 18 18 20 21 22 23 24
3 3 2 3 4 4 5 7 9 10 12 14 16 17 19 22 27 32 35 34 32 27 22 20 22 23 23 24 26 30 34 36 38 39 39 38 39 39 39 40 41 40 39 36 31 28 28 28 28 28 28 28 29 29 28 26 24 23 22 23 24 23 21 19 15 13 12 13 14 15 15 16 17 17 17 17 18 19 19 19 20 22 23 23 22
3 3 2 3 3 4 5 6 8 9 10 12 13 15 16 17 19 24 31 36 38 34 30 27 26 27 28 30 31 29 30 32 34 35 37 38 39 38 38 38 37 34 33 31 29 29 30 29 28 28 29 31 32 30 26 24 23 23 25 25 23 21 18 14 11 11 12 13 13 15 16 17 19 19 19 18 18 19 20 20 21 22 22 22 22
4 3 3 3 3 4 5 6 6 8 9 11 12 13 15 17 18 19 22 26 31 35 37 37 34 30 29 31 33 33 33 33 33 33 34 35 36 36 36 35 33 33 32 30 29 30 31 30 30 30 31 32 32 28 24 24 25 25 24 23 20 17 14 11 10 11 12 13 14 16 17 18 19 20 20 20 20 20 20 20 20 21 22 23 23
5 4 4 3 3 3 4 5 6 7 8 10 12 13 14 15 16 18 19 21 24 29 34 39 40 39 34 30 31 34 36 35 35 34 32 31 31 32 32 32 33 34 33 30 30 32 33 32 31 32 32 32 31 27 25 25 25 24 22 20 18 15 12 10 10 11 12 13 14 16 18 19 19 20 20 20 19 20 20 20 20 20 22 23 23
6 5 4 3 3 3 3 4 5 7 8 9 10 11 13 14 15 17 19 21 23 26 30 34 37 40 40 38 37 37 36 35 35 33 30 29 28 29 30 31 32 32 31 29 30 32 33 33 33 33 34 33 30 28 26 25 24 22 20 18 16 13 11 10 10 11 12 14 15 17 19 19 19 20 22 21 19 19 20 21 21 20 21 23 23
6 5 5 4 3 3 3 4 5 6 7 8 9 10 12 13 15 17 18 20 22 24 27 29 31 32 36 40 42 41 39 38 37 35 34 32 30 30 32 32 30 29 29 30 30 30 31 34 35 34 34 32 30 28 26 24 23 21 19 16 14 11 9 9 9 10 12 14 15 17 18 19 19 20 21 22 22 21 21 22 23 22 22 22 22
7 6 5 4 3 2 3 4 5 5 6 7 8 9 11 13 15 16 18 21 22 23 24 26 27 28 31 36 40 41 41 39 38 37 39 38 34 32 32 31 30 31 31 31 32 31 32 34 35 33 32 31 30 28 25 23 21 19 16 13 11 9 8 9 9 11 13 14 16 18 18 18 18 19 20 22 22 23 23 23 23 24 24 22 20
8 7 6 4 3 2 2 3 4 4 5 6 8 9 11 13 15 16 18 20 22 22 23 24 26 28 30 32 34 36 37 37 36 37 37 36 34 32 31 31 32 32 32 33 34 34 33 33 33 31 31 30 29 27 24 21 19 16 13 11 9 8 8 8 10 11 13 15 16 18 19 19 18 18 19 21 21 23 24 23 23 23 24 22 21
9 7 6 5 4 3 2 2 2 3 4 6 8 9 10 12 14 16 18 20 21 22 23 24 25 28 29 29 29 30 31 32 33 33 32 32 31 30 30 31 32 32 33 34 35 34 33 33 32 30 29 29 27 24 22 19 16 14 12 10 8 8 8 8 9 11 13 14 16 17 18 19 18 18 19 20 21 21 22 22 22 22 22 22 23
9 8 7 6 5 3 2 1 0 2 4 5 7 8 10 12 13 15 17 19 21 22 23 24 26 27 28 28 27 28 28 28 28 29 29 29 29 29 30 31 32 32 33 34 33 32 32 33 31 28 27 26 24 22 20 18 15 13 11 9 8 7 7 8 9 11 13 14 16 18 19 19 18 19 20 21 22 22 21 21 22 22 22 22 23
9 8 7 6 5 4 2 1 1 2 4 5 7 8 9 11 13 15 17 18 20 21 23 25 27 28 28 28 28 28 27 27 27 27 27 28 29 30 32 33 34 34 34 33 31 29 29 28 26 24 23 21 20 19 18 16 14 11 10 8 7 7 7 8 9 11 13 14 16 18 19 20 19 19 20 22 23 23 22 22 22 22 22 22 22
9 9 8 7 6 4 3 2 2 3 4 5 6 7 8 10 12 14 16 18 19 20 21 24 26 28 29 30 30 29 28 28 28 27 27 28 30 31 32 34 35 35 34 32 30 28 26 24 24 23 21 20 19 18 16 14 12 10 9 8 7 7 7 8 9 11 12 14 16 18 19 19 19 19 20 22 23 23 23 23 22 22 21 21 21
10 10 9 7 6 5 5 4 3 3 4 4 6 7 8 10 12 14 15 17 19 20 21 23 25 26 28 29 29 28 28 28 28 28 28 29 30 31 31 32 33 34 33 32 30 27 26 24 24 24 23 22 20 19 17 15 13 10 9 8 8 7 7 7 9 10 11 13 16 18 18 18 18 19 20 22 23 23 23 23 22 22 21 21 20
11 10 9 8 8 6 5 4 4 4 4 5 7 8 9 11 12 14 15 17 18 19 21 22 24 25 26 27 27 27 28 28 28 28 28 29 29 30 30 31 30 31 31 30 29 28 26 25 23 23 22 21 20 18 17 16 14 11 10 9 8 6 5 6 7 8 9 11 14 15 16 16 17 18 20 21 22 22 22 22 21 21 21 20 20
12 11 10 9 8 7 5 5 4 4 5 5 7 8 9 11 13 14 15 17 18 19 21 22 23 24 25 25 26 27 27 28 28 28 28 28 28 28 29 29 29 29 28 28 28 27 26 25 23 22 21 20 20 19 18 17 15 13 11 10 9 7 5 3 1 4 7 9 10 11 12 14 16 18 20 21 22 21 20 20 20 20 20 20 19
12 11 10 9 8 7 6 5 5 5 6 6 7 8 9 11 12 13 14 16 17 19 20 21 22 23 24 25 26 26 26 27 27 27 27 27 28 28 28 27 27 27 26 26 26 26 25 25 24 23 22 21 21 20 20 19 17 15 13 12 11 10 8 6 4 3 4 6 7 8 10 12 15 18 19 20 20 19 19 19 19 19 19 19 19
12 11 10 9 8 7 6 6 6 6 6 7 8 8 9 11 12 13 14 16 17 19 20 21 22 22 23 24 25 26 27 27 27 27 27 27 27 27 27 26 26 25 25 24 25 24 24 24 24 23 23 22 21 21 21 21 20 19 17 15 14 13 12 10 9 7 5 4 4 5 7 10 14 16 17 17 17 17 17 18 18 18 19 18 18
12 11 10 9 8 7 7 7 7 7 7 7 8 8 9 11 12 14 15 16 18 19 20 21 21 22 23 23 25 26 27 27 26 26 27 27 26 26 26 26 26 25 24 23 22 22 22 22 22 22 22 21 21 21 20 21 21 21 19 17 15 14 12 11 10 10 9 7 6 5 5 7 10 12 13 14 14 14 15 16 17 18 18 18 19
12 11 10 9 9 8 7 7 7 7 7 7 8 9 10 12 14 15 16 17 19 20 20 21 21 22 23 23 24 25 26 26 26 26 26 26 26 25 25 25 25 25 24 23 22 21 21 21 21 21 21 21 20 20 19 19 19 19 18 16 14 13 11 10 9 8 7 7 6 5 4 3 5 8 10 11 12 13 14 15 16 17 18 18 19
Wind_Direction
116 115 113 114 113 110 108 106 105 106 105 103 98 93 88 82 76 71 66 61 54 49 44 39 34 30 26 23 20 16 14 11 7 3 360 358 355 351 348 344 340 338 336 335 334 330 324 320 319 319 317 313 309 307 304 301 299 294 290 287 284 282 280 277 275 281 286 287 288 289 291 294 292 290 288 287 285 281 277 276 278 281 282 283 280
115 115 115 115 113 110 109 105 102 100 98 95 92 89 84 78 72 66 60 54 47 42 38 34 30 26 23 20 17 13 10 7 4 1 357 354 353 350 347 342 338 335 332 330 330 328 322 317 316 318 316 310 307 306 304 302 300 295 291 289 285 281 277 274 276 279 284 288 289 290 291 291 290 289 289 288 286 285 283 282 283 283 281 279 276
116 117 117 114 112 112 110 106 102 97 92 87 83 80 76 73 68 61 55 50 44 39 35 32 27 23 20 17 14 11 7 5 2 358 355 351 348 346 344 339 334 331 326 325 324 322 318 313 313 315 313 309 305 305 304 302 299 296 292 290 285 282 279 272 270 270 275 283 287 289 291 290 287 286 287 285 285 285 283 282 281 279 276 274 271
118 119 117 114 112 111 108 105 103 97 91 84 78 74 70 68 64 58 54 48 42 38 32 28 23 19 15 12 9 6 3 360 358 355 352 348 344 342 340 336 332 328 324 322 321 318 314 311 312 314 311 307 305 305 306 303 300 296 293 292 287 284 283 276 269 268 271 279 284 286 288 289 287 287 287 286 285 283 281 280 279 275 271 269 269
121 120 118 115 112 109 107 104 100 93 88 82 76 70 63 60 58 54 49 43 37 33 27 22 18 14 11 8 4 2 359 356 354 353 351 348 344 340 338 335 331 328 324 321 320 317 314 311 311 313 311 306 306 306 305 304 301 297 294 293 290 287 286 282 275 271 269 272 278 283 286 287 286 286 286 286 284 283 281 278 275 272 270 270 270
123 120 119 116 112 109 105 100 95 89 84 78 71 64 56 50 48 45 40 35 30 26 21 18 15 11 9 7 3 0 359 356 354 352 350 346 342 338 336 333 330 327 325 322 320 317 314 312 311 311 309 306 306 307 305 304 302 298 295 295 293 291 288 285 282 276 271 270 274 280 284 285 285 285 286 285 282 280 279 277 274 270 269 270 271
124 121 119 116 110 106 101 94 90 84 78 73 64 57 50 43 40 38 34 30 26 22 18 15 13 10 8 5 3 360 358 356 353 350 348 343 338 335 333 332 329 327 325 322 320 318 314 312 310 308 307 305 304 305 304 303 301 298 295 294 294 293 289 287 285 280 275 274 274 276 280 283 283 284 285 284 279 275 272 272 274 272 270 269 270
125 121 118 113 107 102 97 91 85 78 72 66 58 51 45 38 35 32 29 26 22 17 14 11 8 7 4 2 0 357 354 353 350 346 343 339 335 332 330 329 326 324 323 321 319 317 314 312 309 306 305 304 303 302 301 300 299 297 297 295 293 292 289 288 287 283 279 277 276 277 280 281 282 283 284 281 274 270 269 265 266 271 271 269 270
125 121 116 110 104 100 96 88 81 74 66 60 53 45 39 34 31 27 24 21 17 13 10 7 4 2 0 358 356 354 351 349 346 343 338 334 331 329 327 326 325 323 322 321 319 317 315 312 309 307 305 304 303 301 300 299 295 293 295 295 292 290 289 288 287 284 282 279 278 279 280 279 281 282 282 277 271 272 274 266 260 266 269 266 267
124 119 114 109 104 99 94 86 79 70 62 55 47 40 33 28 25 22 19 16 13 10 6 4 2 359 356 354 352 350 348 346 345 341 337 333 330 328 326 325 324 322 320 319 318 316 314 312 309 307 305 302 301 299 298 297 294 291 292 292 290 287 286 285 285 284 282 279 279 280 280 279 280 281 280 280 279 278 274 264 258 262 262 259 264
123 119 113 109 104 98 92 84 76 67 58 50 41 34 27 22 19 17 15 12 9 7 4 2 1 358 354 352 349 348 348 348 347 343 340 337 333 329 327 325 323 321 318 316 315 314 313 311 308 306 304 302 301 299 297 296 294 292 291 289 287 285 282 280 281 282 282 279 278 279 279 279 282 283 282 282 283 280 273 265 258 255 248 243 252
123 118 113 108 102 97 91 81 73 63 53 43 34 28 22 18 15 13 11 9 7 6 3 1 360 357 354 351 349 348 349 349 347 345 341 338 335 330 326 324 321 319 317 314 312 312 311 310 309 306 303 302 301 300 298 296 295 293 292 290 288 285 281 277 276 278 279 278 278 278 278 280 283 285 284 284 285 283 277 266 255 247 241 236 236
123 117 112 108 101 95 88 78 69 58 46 37 28 23 19 15 13 12 10 9 6 4 2 360 359 357 353 350 348 346 347 347 345 343 340 337 335 331 326 323 321 318 317 314 312 311 309 309 308 307 305 302 300 299 298 297 296 295 293 291 289 287 284 279 275 274 274 273 274 275 277 280 282 284 285 286 285 284 280 269 256 248 241 238 239
123 115 110 106 100 93 84 73 63 50 38 31 24 20 18 15 13 11 9 7 4 2 360 357 356 354 351 348 345 343 344 345 343 341 339 337 334 330 325 323 320 318 316 314 312 310 309 307 305 305 305 303 300 298 297 296 296 296 294 292 290 288 287 283 279 276 273 270 268 271 275 278 280 282 286 287 284 281 279 274 266 255 245 245 247
124 116 110 103 97 89 76 63 53 42 33 28 23 19 17 14 11 9 7 4 1 359 357 354 352 351 349 346 342 340 341 342 342 340 338 336 333 329 325 322 320 317 316 314 312 309 308 307 304 302 303 302 301 299 297 297 296 296 294 292 291 290 288 285 282 279 275 271 268 270 273 277 280 282 285 287 284 281 279 276 274 267 255 248 241
125 120 112 103 97 84 64 53 45 37 31 27 22 18 15 12 8 6 3 0 358 355 353 351 349 347 346 344 340 338 338 340 340 339 337 335 332 328 325 322 319 316 315 314 312 309 308 307 304 302 301 301 302 302 301 300 298 295 293 293 293 293 291 289 287 283 279 276 272 272 274 277 281 283 285 285 285 284 283 279 272 263 249 230 208
128 126 123 115 105 81 55 47 41 35 29 25 21 16 12 10 6 3 359 355 354 352 349 348 347 345 343 342 339 336 336 337 337 336 334 332 329 326 324 321 317 314 313 313 311 309 308 306 304 301 300 301 303 305 305 303 298 294 292 293 294 294 293 293 293 289 285 282 278 277 278 279 280 283 284 285 285 284 283 277 266 249 226 208 196
136 139 144 134 107 73 52 46 39 34 28 23 19 14 9 7 3 360 356 352 350 350 347 344 343 342 340 339 337 333 333 334 334 333 332 330 328 325 322 319 315 312 311 311 310 308 306 305 304 301 300 301 304 305 306 304 299 295 294 294 294 293 293 295 297 295 292 289 286 284 283 281 280 281 282 283 283 282 278 273 265 244 216 211 200
149 153 155 139 106 71 55 47 38 32 28 21 16 10 5 3 360 356 353 351 348 347 345 341 339 338 337 335 334 332 330 330 331 330 329 328 327 325 322 316 311 310 310 308 308 307 305 304 304 302 301 303 304 305 305 303 300 297 296 295 293 291 293 296 298 296 295 294 291 289 286 283 282 281 280 279 280 280 276 271 265 244 221 213 186
159 159 155 142 106 70 56 47 37 29 23 17 12 7 1 358 356 353 350 348 345 343 342 339 336 334 334 333 331 330 328 328 329 329 327 326 325 324 320 314 309 308 307 305 303 303 303 303 303 302 302 303 303 304 303 301 299 298 297 295 291 291 295 297 296 295 295 293 292 290 287 285 285 282 278 276 277 279 277 274 264 242 224 210 185
162 157 150 132 92 66 53 44 35 26 17 11 8 3 359 355 353 351 348 345 343 340 339 337 335 333 332 330 329 328 328 327 326 326 326 324 323 322 317 312 308 305 303 301 299 299 300 301 301 302 303 303 303 303 302 299 299 299 296 293 292 293 296 297 296 296 294 292 290 289 286 286 286 281 275 272 275 277 277 274 259 238 225 210 189
157 151 139 110 78 61 49 38 30 21 11 5 2 359 356 353 351 349 347 343 340 338 338 337 334 331 330 329 328 327 328 326 324 324 323 322 321 320 315 310 308 305 301 298 296 296 298 299 299 300 302 303 303 302 301 300 300 299 296 294 294 296 296 296 296 295 292 290 289 286 286 286 282 275 271 269 271 271 269 261 245 229 222 210 192
152 142 124 94 71 58 45 33 24 14 6 0 358 356 353 351 350 348 345 343 340 338 338 338 335 331 329 328 327 326 326 325 323 322 322 321 321 320 316 312 309 307 302 298 297 298 299 299 298 299 301 301 301 300 300 300 299 297 296 296 296 296 295 295 294 292 289 288 286 284 284 282 273 267 265 263 261 255 243 231 218 207 203 196 188
147 130 113 90 71 56 40 27 16 7 2 357 354 353 350 348 348 347 345 344 342 338 337 336 334 330 326 324 325 325 325 323 321 321 321 321 321 320 318 315 313 310 306 302 300 299 298 297 297 298 299 299 298 298 297 297 296 296 295 295 296 295 293 290 290 289 288 287 284 283 281 272 260 256 253 242 230 217 201 187 180 177 173 168 167
139 122 108 88 69 54 31 18 11 4 360 357 353 351 349 346 346 346 346 344 340 336 334 334 332 328 323 321 321 322 322 321 320 321 322 322 322 320 318 314 312 310 306 302 299 298 297 297 297 297 298 297 297 296 294 294 294 295 294 294 294 291 288 286 287 287 285 284 284 280 271 255 246 246 236 212 190 180 170 156 147 148 151 149 145
132 119 104 79 56 39 19 9 7 2 358 356 354 352 350 347 343 342 342 340 338 335 332 331 330 326 321 319 318 319 319 319 319 321 322 323 322 320 318 315 313 310 306 303 302 301 300 299 298 297 297 296 295 293 291 291 292 293 293 293 290 287 285 286 286 284 283 283 282 272 254 242 239 227 202 182 168 159 152 144 135 132 138 139 131
130 115 94 67 36 21 13 4 1 360 357 355 355 353 350 346 341 339 339 339 336 334 332 330 328 324 319 317 317 317 316 317 318 321 323 323 321 319 317 314 313 311 309 307 306 305 302 300 299 298 297 295 294 292 290 288 288 289 290 290 288 285 287 288 287 285 284 283 275 257 238 226 212 190 175 166 156 147 145 144 136 129 133 134 123
126 107 83 57 28 17 14 6 360 359 357 354 353 351 348 345 341 339 341 340 336 332 330 326 323 319 315 314 316 316 315 315 317 319 320 319 317 316 315 313 312 311 309 309 309 307 304 302 301 299 298 295 293 292 290 287 286 287 289 289 287 288 290 292 290 285 281 275 260 235 211 190 179 172 165 157 150 145 145 144 138 133 133 131 120
119 100 75 51 31 21 17 11 4 0 356 353 351 348 347 346 342 339 341 342 336 329 322 317 317 316 312 310 311 311 310 311 314 315 315 314 314 313 312 311 310 309 309 310 310 307 304 302 299 298 297 295 293 292 291 290 290 290 289 288 287 290 293 294 290 281 272 260 239 210 186 172 168 165 158 150 146 148 147 142 138 136 133 127 121
115 101 76 50 35 22 15 11 7 2 357 353 349 346 343 344 342 340 340 340 336 329 318 310 310 312 311 310 311 307 302 305 309 312 313 313 314 313 312 311 310 310 310 312 310 306 302 300 298 297 297 296 295 293 292 292 292 292 290 288 289 293 295 293 285 273 260 245 222 197 180 169 162 157 153 146 141 142 144 141 139 137 132 125 120
121 107 79 46 30 19 14 11 7 3 360 355 351 347 342 339 340 341 341 338 337 337 332 323 317 314 311 312 314 311 307 307 309 311 312 313 314 314 313 312 312 312 313 313 309 303 300 299 298 297 297 295 294 293 293 293 292 289 289 290 292 296 295 288 277 263 249 230 205 187 176 167 159 155 151 145 139 138 140 138 136 134 130 128 126
126 103 70 43 29 20 17 14 7 3 0 358 356 353 347 341 338 338 338 338 339 343 345 340 333 326 320 317 316 314 313 313 314 314 315 315 315 315 314 313 313 313 314 313 307 300 297 296 295 297 298 297 295 295 294 293 290 288 290 293 296 297 292 282 271 257 238 215 194 179 169 162 156 151 148 143 138 136 134 132 131 130 126 126 126
125 99 70 54 46 32 22 16 10 5 2 359 357 355 351 344 338 335 335 337 341 345 348 344 337 332 327 322 317 313 312 314 316 317 318 318 318 317 316 314 314 315 316 315 310 304 301 300 298 300 302 300 299 297 294 292 291 292 294 296 296 295 289 278 266 248 225 205 187 173 165 161 154 148 144 140 137 133 131 129 129 128 125 123 123
131 113 91 76 64 43 28 20 12 6 3 2 358 353 349 346 340 336 335 336 337 338 338 336 334 332 329 325 321 317 316 317 317 317 318 318 318 318 318 317 316 317 318 317 312 308 308 307 305 306 306 304 301 298 295 295 296 297 298 297 294 290 283 272 255 231 208 191 179 169 163 159 155 149 143 139 136 132 131 131 132 131 128 126 126
144 133 110 95 76 47 31 21 12 7 5 3 359 354 351 348 343 337 334 332 330 328 326 326 328 330 328 327 325 323 322 321 320 319 319 319 320 322 322 320 318 319 319 316 313 312 312 310 307 307 307 306 303 300 299 301 301 300 300 298 292 284 276 260 237 215 197 182 172 166 160 157 155 151 146 142 139 136 134 137 138 136 133 132 132
150 141 125 109 80 52 39 27 17 13 10 5 0 356 352 347 340 335 331 328 323 319 318 321 326 330 332 332 329 326 325 324 322 321 322 323 323 325 324 319 315 315 315 314 315 316 314 311 310 310 310 309 307 305 305 305 304 302 301 299 291 280 267 245 220 204 189 176 168 163 159 156 154 152 147 143 141 139 139 141 140 138 139 138 137
149 143 134 117 92 69 53 40 31 22 13 7 2 355 348 342 337 332 329 326 321 317 315 320 326 331 334 335 334 331 326 324 323 323 324 326 327 327 323 317 312 310 310 314 318 319 318 317 317 316 314 312 310 309 308 307 306 304 303 299 290 277 260 236 212 195 182 172 166 163 160 156 156 155 149 144 142 141 141 142 141 139 142 143 141
153 150 141 123 104 87 58 43 37 26 15 7 359 349 341 336 334 332 329 324 319 316 317 321 326 329 330 331 333 333 330 328 328 328 329 330 330 328 324 319 314 312 314 318 322 322 320 320 318 317 315 315 313 311 309 309 309 308 304 298 288 272 249 225 204 189 179 171 166 164 162 158 158 159 155 149 146 146 145 146 145 144 145 146 147
161 153 140 121 101 85 61 45 36 24 13 1 350 341 335 334 335 333 328 322 318 316 318 322 325 327 328 329 331 333 332 330 330 329 329 330 330 330 328 325 322 321 321 321 321 321 319 318 317 317 318 318 317 314 312 313 313 310 304 295 282 261 233 214 200 188 179 173 169 167 165 161 161 163 161 155 152 151 151 152 152 151 151 151 150
160 149 140 131 120 104 76 52 35 18 1 346 338 336 334 334 334 331 325 319 316 316 320 322 323 326 329 329 330 332 330 328 327 327 327 329 330 331 331 329 326 324 322 321 321 321 318 317 317 318 320 322 320 317 316 316 316 314 306 292 274 253 230 213 200 188 181 176 173 170 168 165 164 165 163 159 157 157 157 156 156 155 153 152 151
157 150 148 144 135 122 97 64 25 357 341 332 331 333 334 333 331 326 321 317 316 316 320 321 323 326 329 329 329 331 329 326 325 327 328 329 330 330 330 329 327 325 323 323 322 321 320 320 320 320 321 324 324 321 320 321 320 318 312 297 275 254 234 214 201 193 185 179 176 173 170 168 167 167 165 162 161 161 159 157 156 156 153 152 151
158 155 151 148 146 143 130 116 337 318 321 324 328 332 331 328 326 322 317 316 316 318 320 322 325 328 330 329 331 333 332 328 326 327 329 330 331 330 330 330 329 327 326 325 324 323 324 326 326 324 325 328 329 327 326 327 328 328 321 304 281 258 236 217 205 198 190 183 180 177 173 171 170 170 168 167 164 163 160 157 155 155 154 153 153
161 158 153 152 155 161 164 177 251 291 307 318 326 328 326 322 321 319 315 314 317 319 321 323 326 329 330 332 335 337 336 332 330 328 329 332 333 333 334 335 334 333 333 333 332 331 332 333 334 333 334 336 335 331 329 329 331 334 328 313 294 271 248 230 215 203 195 189 184 179 175 174 174 172 171 170 167 163 160 158 156 156 155 154 155
165 162 159 158 160 168 183 206 243 272 292 308 315 318 321 320 319 318 317 317 318 320 322 324 327 328 330 334 337 338 336 333 331 331 332 334 336 337 339 340 342 343 344 345 345 344 343 344 345 346 347 348 344 340 337 335 334 333 330 322 310 288 265 243 223 211 203 193 185 179 176 176 176 173 170 170 167 163 160 159 159 157 156 155 155
173 167 164 166 172 182 192 202 225 254 279 298 304 311 319 320 319 320 319 318 319 322 323 325 327 327 328 332 335 336 334 332 332 333 335 337 339 341 343 346 349 352 355 355 356 356 355 355 355 355 355 355 354 351 347 345 344 341 337 332 324 310 290 264 239 224 214 200 188 180 176 176 176 174 171 169 168 165 162 162 162 160 159 159 158
178 172 173 179 184 189 196 204 223 246 267 287 299 309 318 320 319 319 318 317 319 321 321 322 324 325 326 329 331 332 332 331 332 334 337 339 342 345 347 350 354 359 2 3 3 4 4 4 4 4 2 2 3 1 356 355 356 357 357 355 350 342 324 294 263 236 217 204 192 185 180 177 175 174 172 169 168 166 164 164 166 165 164 163 162
181 179 183 189 190 194 203 212 229 251 268 283 296 306 314 317 318 318 317 317 319 319 318 319 321 322 324 327 329 329 330 330 331 333 337 341 344 347 350 354 357 0 4 6 7 7 9 9 10 11 10 9 11 11 10 9 9 9 14 18 17 20 24 11 289 215 202 199 196 192 188 180 173 171 169 168 167 167 165 165 167 168 167 167 166
184 185 189 194 198 206 217 226 241 258 270 283 295 302 309 314 317 317 317 318 319 318 318 319 320 321 322 324 325 326 327 329 331 333 337 342 347 349 350 353 356 359 3 6 7 8 9 9 10 12 13 14 17 19 19 20 21 22 27 33 36 41 49 56 68 125 170 187 192 192 189 177 168 166 167 167 168 169 168 168 170 171 170 169 168
188 190 195 203 209 218 229 239 252 264 271 280 290 300 309 313 314 314 315 316 316 317 317 317 318 320 322 323 324 324 325 327 330 334 338 342 347 350 350 351 353 357 1 4 5 6 7 8 9 11 12 14 18 20 22 24 27 29 33 38 42 47 53 58 64 75 87 104 135 154 161 160 159 161 164 167 171 173 173 173 173 173 171 170 169
196 199 205 214 219 227 237 244 253 263 271 278 288 299 307 309 310 312 313 312 312 314 316 316 317 319 321 323 323 323 323 325 327 331 335 339 344 348 349 349 351 354 358 2 3 3 4 5 7 7 8 10 14 17 20 23 25 27 30 35 38 43 48 53 58 63 67 69 79 96 120 144 156 161 166 171 175 177 178 177 176 175 175 174 173
204 210 217 222 225 229 237 244 251 259 268 279 291 299 303 305 308 311 310 309 310 312 314 315 317 318 320 321 321 321 322 323 325 328 331 335 338 342 345 347 348 350 353 356 359 0 1 2 4 4 5 6 9 12 16 20 21 21 23 27 32 37 42 46 50 56 61 66 73 79 90 130 164 174 177 179 182 183 182 181 181 180 180 180 179